EIN6374 EIDW-EGCC

Flight info

Callsign EIN6374
Flight time N/A
Altitude 19000
Route BOFUM3J BOFUM Q37 MALUD
Aircraft A320/M-SDE3FGHIRWY/LB1

Departure

Time N/A
Airport Dublin Airport (EIDW)

Arrival

Time 2026-05-05 19:20
Airport Manchester Airport (EGCC)
Time Latitude Longitude Altitude Speed Heading
2026-05-05 19:02 53.50956 -4.57322 19047 ft 420 kts 93°
2026-05-05 19:02 53.50784 -4.52492 19044 ft 420 kts 93°
2026-05-05 19:02 53.50609 -4.47595 19045 ft 420 kts 93°
2026-05-05 19:02 53.50433 -4.42699 19045 ft 420 kts 93°
2026-05-05 19:03 53.50255 -4.37805 19038 ft 420 kts 93°
2026-05-05 19:03 53.50073 -4.32912 19039 ft 420 kts 93°
2026-05-05 19:03 53.49888 -4.28022 19042 ft 420 kts 93°
2026-05-05 19:03 53.49699 -4.23128 19042 ft 420 kts 93°
2026-05-05 19:04 53.49513 -4.18230 19042 ft 420 kts 93°
2026-05-05 19:04 53.49332 -4.13408 19038 ft 420 kts 93°
2026-05-05 19:04 53.49143 -4.08512 19037 ft 420 kts 94°
2026-05-05 19:04 53.48949 -4.03616 19039 ft 420 kts 94°
2026-05-05 19:05 53.48724 -3.98730 19032 ft 421 kts 97°
2026-05-05 19:05 53.48160 -3.93775 18643 ft 441 kts 105°
2026-05-05 19:05 53.47184 -3.88859 18194 ft 445 kts 110°
2026-05-05 19:05 53.46155 -3.83977 17699 ft 443 kts 109°
2026-05-05 19:06 53.45136 -3.79116 17218 ft 440 kts 109°
2026-05-05 19:06 53.44142 -3.74351 16748 ft 437 kts 109°
2026-05-05 19:06 53.43141 -3.69556 16277 ft 434 kts 109°
2026-05-05 19:06 53.42153 -3.64796 15818 ft 431 kts 108°
2026-05-05 19:07 53.41394 -3.59960 15369 ft 428 kts 101°
2026-05-05 19:07 53.40607 -3.55174 14919 ft 425 kts 109°
2026-05-05 19:07 53.39539 -3.50576 14470 ft 422 kts 112°
2026-05-05 19:07 53.38365 -3.46079 14040 ft 420 kts 114°
2026-05-05 19:08 53.37151 -3.41647 13583 ft 417 kts 115°
2026-05-05 19:08 53.35944 -3.37250 13099 ft 414 kts 114°
2026-05-05 19:08 53.34768 -3.32871 12631 ft 411 kts 114°
2026-05-05 19:08 53.33641 -3.28563 12172 ft 408 kts 113°
2026-05-05 19:09 53.32528 -3.24208 11740 ft 405 kts 112°
2026-05-05 19:09 53.31438 -3.19874 11333 ft 403 kts 112°
2026-05-05 19:09 53.30355 -3.15574 10933 ft 400 kts 112°
2026-05-05 19:09 53.29273 -3.11310 10533 ft 397 kts 112°
2026-05-05 19:10 53.28187 -3.07075 10154 ft 396 kts 112°
2026-05-05 19:10 53.27119 -3.02936 9750 ft 374 kts 112°
2026-05-05 19:10 53.26125 -2.99088 9323 ft 347 kts 112°
2026-05-05 19:10 53.25197 -2.95510 8902 ft 325 kts 112°
2026-05-05 19:11 53.24334 -2.92191 8487 ft 308 kts 112°
2026-05-05 19:11 53.23504 -2.89002 8081 ft 292 kts 112°
2026-05-05 19:11 53.22711 -2.85943 7669 ft 282 kts 112°
2026-05-05 19:11 53.21951 -2.83010 7269 ft 269 kts 112°
2026-05-05 19:12 53.21227 -2.80219 6839 ft 256 kts 112°
2026-05-05 19:12 53.20534 -2.77559 6444 ft 244 kts 112°
2026-05-05 19:12 53.19870 -2.75024 6032 ft 233 kts 112°
2026-05-05 19:12 53.19232 -2.72592 5602 ft 224 kts 112°
2026-05-05 19:13 53.18620 -2.70252 5191 ft 216 kts 112°
2026-05-05 19:13 53.18024 -2.67977 4783 ft 213 kts 112°
2026-05-05 19:13 53.17606 -2.65662 4365 ft 206 kts 89°
2026-05-05 19:13 53.17933 -2.63383 3947 ft 203 kts 57°
2026-05-05 19:14 53.18788 -2.61523 3542 ft 207 kts 49°
2026-05-05 19:14 53.19715 -2.59655 3130 ft 211 kts 49°
2026-05-05 19:14 53.20629 -2.57796 3005 ft 203 kts 49°
2026-05-05 19:14 53.21520 -2.55975 3008 ft 202 kts 49°
2026-05-05 19:15 53.22412 -2.54154 3011 ft 203 kts 51°
2026-05-05 19:15 53.23299 -2.52338 3009 ft 201 kts 52°
2026-05-05 19:15 53.24180 -2.50535 3009 ft 200 kts 52°
2026-05-05 19:15 53.25047 -2.48757 3006 ft 192 kts 52°
2026-05-05 19:16 53.25858 -2.47095 2976 ft 184 kts 52°
2026-05-05 19:16 53.26642 -2.45488 2839 ft 174 kts 52°
2026-05-05 19:16 53.27378 -2.43976 2601 ft 161 kts 52°
2026-05-05 19:16 53.28056 -2.42583 2396 ft 149 kts 52°
2026-05-05 19:17 53.28698 -2.41264 2198 ft 146 kts 52°
2026-05-05 19:17 53.29335 -2.39951 1999 ft 145 kts 51°
2026-05-05 19:17 53.29966 -2.38654 1792 ft 143 kts 51°
2026-05-05 19:17 53.30563 -2.37425 1619 ft 132 kts 51°
2026-05-05 19:18 53.31134 -2.36249 1429 ft 128 kts 53°
2026-05-05 19:18 53.31693 -2.35097 1252 ft 127 kts 52°
2026-05-05 19:18 53.32239 -2.33971 1069 ft 127 kts 51°
2026-05-05 19:18 53.32791 -2.32830 863 ft 125 kts 51°
2026-05-05 19:19 53.33345 -2.31690 661 ft 126 kts 50°
2026-05-05 19:19 53.33896 -2.30551 456 ft 126 kts 51°
2026-05-05 19:19 53.34442 -2.29419 360 ft 124 kts 50°
2026-05-05 19:19 53.34985 -2.28296 257 ft 123 kts 50°
2026-05-05 19:20 53.35437 -2.27376 260 ft 66 kts 51°
2026-05-05 19:20 53.35555 -2.27131 262 ft 10 kts 53°
2026-05-05 19:20 53.35621 -2.27090 265 ft 11 kts 343°
2026-05-05 19:20 53.35692 -2.27166 259 ft 15 kts 323°
2026-05-05 19:21 53.35710 -2.27188 256 ft 1 kts 323°
2026-05-05 19:21 53.35737 -2.27222 252 ft 5 kts 321°
2026-05-05 19:21 53.35738 -2.27224 252 ft 0 kts 320°